Location: *
(31.2983°S, 151.4094°E)
Time: 18:43:15
(UTC+00:00)

Milstar 3 Cent rocket - Pass Details

Date: 25 August 2019
Orbit: 705 x 5148 km, 28.3° (Epoch: 20 September)

Event Time Altitude Azimuth Distance (km) Brightness Sun altitude
Exits shadow 17:57:58 16° 21° (NNE) 1,846 4.1 -30.8°
Maximum altitude 17:58:39 16° 31° (NNE) 1,852 4.2 -30.6°
Drops below altitude 10° 18:01:56 10° 70° (ENE) 2,471 5.4 -29.9°
Sets 18:05:55 0° 90° (E) 3,845 6.8 -29.1°
